This demonstration page uses our WeatherBlox Daily Observations layout. Learn more.

Left ArrowRight Arrow

40.92501, -98.34201

Hourly Observations for December 5, 2022

Temp ( °F °C ) Dew Point ( °F °C ) Humidity (%) Winds ( mph kmh ) Pressure ( in mb ) Visibility ( mi km ) Precip ( " mm )
12:53 am 00:53 Clear 39 3.9 15 -9.4 37 37 SSW 8 13 29.82 1010 10 16 0.00 0.00
1:53 am 01:53 Clear 35 1.7 15 -9.4 43 43 SSW 6 9 29.80 1009 10 16 0.00 0.00
2:53 am 02:53 Clear 34 1.1 15 -9.4 45 45 SSW 6 9 29.80 1009 10 16 0.00 0.00
3:53 am 03:53 Clear 34 1.1 15 -9.4 45 45 SSW 7 11 29.78 1009 10 16 0.00 0.00
4:53 am 04:53 Clear 29 -1.7 14 -10 53 53 SW 5 7 29.79 1009 10 16 0.00 0.00
5:53 am 05:53 Clear 25 -3.9 13 -10.6 60 60 WNW 7 11 29.79 1009 10 16 0.00 0.00
6:53 am 06:53 Clear 28 -2.2 15 -9.4 58 58 NW 13 20 29.82 1010 10 16 0.00 0.00
7:53 am 07:53 Sunny 32 0 19 -7.2 58 58 N 12 19 29.83 1010 10 16 0.00 0.00
8:53 am 08:53 Sunny 35 1.7 21 -6.1 56 56 NNE 13 20 29.86 1011 10 16 0.00 0.00
9:53 am 09:53 Sunny 36 2.2 20 -6.7 52 52 NNE 17 28 29.88 1012 10 16 0.00 0.00
10:53 am 10:53 Sunny 38 3.3 20 -6.7 48 48 N 15 24 29.91 1013 10 16 0.00 0.00
11:53 am 11:53 Sunny 37 2.8 20 -6.7 50 50 N 16 26 29.90 1013 10 16 0.00 0.00
12:53 pm 12:53 Sunny 38 3.3 20 -6.7 48 48 N 18 30 29.89 1012 10 16 0.00 0.00
1:53 pm 13:53 Sunny 36 2.2 19 -7.2 50 50 N 14 22 29.90 1012 10 16 0.00 0.00
2:53 pm 14:53 Partly Cloudy 36 2.2 20 -6.7 52 52 N 20 31 29.92 1013 10 16 0.00 0.00
3:53 pm 15:53 Sunny 33 0.6 20 -6.7 58 58 N 17 28 29.95 1014 10 16 0.00 0.00
4:53 pm 16:53 Partly Cloudy 32 0 18 -7.8 56 56 N 13 20 29.98 1015 10 16 0.00 0.00
5:53 pm 17:53 Mostly Cloudy 31 -0.6 17 -8.3 56 56 N 8 13 30.01 1016 10 16 0.00 0.00
6:53 pm 18:53 Clear 30 -1.1 16 -8.9 55 55 NNE 12 19 30.02 1017 10 16 0.00 0.00
7:53 pm 19:53 Clear 27 -2.8 15 -9.4 60 60 NNE 8 13 30.02 1017 10 16 0.00 0.00
8:53 pm 20:53 Clear 28 -2.2 16 -8.9 60 60 NNE 10 17 30.02 1017 10 16 0.00 0.00
9:53 pm 21:53 Partly Cloudy 28 -2.2 17 -8.3 63 63 NE 8 13 30.03 1017 10 16 0.00 0.00
10:53 pm 22:53 Clear 22 -5.6 15 -9.4 74 74 NE 7 11 30.02 1017 10 16 0.00 0.00
11:53 pm 23:53 Mostly Cloudy 25 -3.9 16 -8.9 68 68 Calm 30.02 1017 10 16 0.00 0.00

Powered by AerisWeather